Waterloo, IA

2:45 PM CDT on June 26, 2017 (GMT -0500)
Waterloo Municipal

Weather History for KALO - September, 2013

Change the Weather History Date:

Wednesday, September 25, 2013

  Actual Average Record
Temperature  
Mean Temperature 60 °F 59 °F  
Max Temperature 75 °F 72 °F 92 °F (1920)
Min Temperature 45 °F 46 °F 27 °F (1942)
Degree Days  
Heating Degree Days 5 7  
Month to date heating degree days 85 96  
Since 1 July heating degree days 105 116  
Cooling Degree Days 0 1  
Month to date cooling degree days 122 73  
Year to date cooling degree days 818 785  
Growing Degree Days 10 (Base 50)    
Moisture  
Dew Point 50 °F    
Average Humidity 73    
Maximum Humidity 100    
Minimum Humidity 46    
Precipitation  
Precipitation 0.00 in 0.09 in 1.93 in (1930)
Month to date precipitation 1.25 2.22  
Year to date precipitation 35.54 28.50  
Snow  
Snow 0.00 in 0.00 in - ()
Month to date snowfall 0.0 0.0  
Since 1 July snowfall 0.0 0.0  
Since 1 September snowfall 0.0 0.0  
Snow Depth 0.00 in    
Sea Level Pressure  
Sea Level Pressure 29.92 in    
Wind  
Wind Speed 7 mph (ESE)    
Max Wind Speed 14 mph    
Max Gust Speed 17 mph    
Visibility 9 miles    
Events      
T = Trace of Precipitation, MM = Missing Value Source: NWS Daily Summary

Daily Weather History Graph

Daily Weather History Graph

Search for Another Location

Airport or City:

Trip Planner

Search our weather history database for the weather conditions in past years. The results will help you decide how hot, cold, wet, or windy it might be!

Date:

Astronomy

Sep. 25, 2013 Rise Set
Actual Time 7:00 AM CDT 7:01 PM CDT
Civil Twilight 6:32 AM CDT 7:29 PM CDT
Nautical Twilight 5:59 AM CDT 8:01 PM CDT
Astronomical Twilight 5:26 AM CDT 8:35 PM CDT
Moon 11:01 PM CDT (9/25) 1:13 PM CDT (9/25)
Length of Visible Light 12h 56m
Length of Day
12h 00m
Waning Gibbous, 64% of the Moon is Illuminated
Sep 25
Waning Gibbous
Sep 26
Last Quarter
Oct 4
New
Oct 11
First Quarter
Oct 18
Full

Hourly Weather History & Observations

Time (CDT) Temp. Windchill Dew Point Humidity Pressure Visibility Wind Dir Wind Speed Gust Speed Precip Events Conditions
12:54 AM 51.1 °F - 48.0 °F 89% 29.93 in 10.0 mi Calm Calm - N/A   Clear
3:54 AM 48.9 °F - 46.9 °F 93% 29.94 in 7.0 mi ENE 4.6 mph - N/A   Clear
4:54 AM 45.0 °F 42.6 °F 45.0 °F 100% 29.94 in 4.0 mi NE 4.6 mph - N/A   Clear
5:54 AM 48.0 °F - 46.0 °F 93% 29.95 in 5.0 mi Calm Calm - N/A   Clear
6:54 AM 45.0 °F 43.5 °F 44.1 °F 97% 29.96 in 4.0 mi NE 3.5 mph - N/A   Clear
7:54 AM 50.0 °F - 46.9 °F 89% 29.96 in 6.0 mi East 4.6 mph - N/A   Clear
8:54 AM 55.0 °F - 50.0 °F 83% 29.98 in 8.0 mi East 3.5 mph - N/A   Clear
9:54 AM 61.0 °F - 52.0 °F 72% 29.97 in 10.0 mi East 8.1 mph - N/A   Clear
10:54 AM 66.0 °F - 52.0 °F 60% 29.98 in 10.0 mi East 8.1 mph - N/A   Clear
11:54 AM 70.0 °F - 51.1 °F 51% 29.96 in 10.0 mi East 10.4 mph - N/A   Clear
12:54 PM 72.0 °F - 51.1 °F 48% 29.94 in 10.0 mi ESE 9.2 mph 17.3 mph N/A   Clear
1:54 PM 73.0 °F - 51.1 °F 46% 29.91 in 10.0 mi ESE 8.1 mph - N/A   Clear
2:54 PM 73.9 °F - 52.0 °F 46% 29.90 in 10.0 mi SE 9.2 mph - N/A   Clear
3:54 PM 75.0 °F - 53.1 °F 46% 29.89 in 10.0 mi SSE 9.2 mph - N/A   Clear
4:54 PM 75.0 °F - 53.1 °F 46% 29.88 in 10.0 mi SE 8.1 mph - N/A   Clear
5:54 PM 73.9 °F - 52.0 °F 46% 29.88 in 10.0 mi ESE 8.1 mph - N/A   Clear
6:54 PM 66.9 °F - 54.0 °F 63% 29.89 in 10.0 mi East 6.9 mph - N/A   Clear
7:54 PM 62.1 °F - 54.0 °F 75% 29.89 in 10.0 mi ESE 8.1 mph - N/A   Clear
8:54 PM 62.1 °F - 53.1 °F 72% 29.88 in 10.0 mi East 8.1 mph - N/A   Clear
9:54 PM 59.0 °F - 53.1 °F 81% 29.89 in 10.0 mi ESE 5.8 mph - N/A   Clear
10:54 PM 57.0 °F - 51.1 °F 81% 29.90 in 10.0 mi ESE 5.8 mph - N/A   Clear
11:54 PM 57.9 °F - 50.0 °F 75% 29.91 in 10.0 mi ESE 6.9 mph - N/A   Clear